K7ZQU-7 Weather Reports


time (UTC)temp
C
wind
direction
speed
KPH
gust
KPH
rain 1hr
cm
rain 24hr
cm
rain mn
cm
humidity
%
barometer
mb
20260506070542 7 304 0.0 0.0 0.00 0.00 0.00 94 1017.0
20260506062046 8 325 0.0 0.0 0.00 0.00 0.00 92 1016.9
20260506061547 8 325 0.0 0.0 0.00 0.00 0.00 92 1016.9
20260506061048 8 325 0.0 0.0 0.00 0.00 0.00 93 1016.7
20260506051056 9 284 0.0 0.0 0.00 0.00 0.00 85 1016.5
20260506045058 10 284 0.0 0.0 0.00 0.00 0.00 84 1016.5
20260506044559 10 314 0.0 0.0 0.00 0.00 0.00 84 1016.5
20260506044057 10 304 1.6 4.8 0.00 0.00 0.00 84 1016.5
20260506043558 10 11 0.0 0.0 0.00 0.00 0.00 83 1016.5
20260506043059 10 11 0.0 0.0 0.00 0.00 0.00 84 1016.5
20260506042600 10 11 0.0 0.0 0.00 0.00 0.00 83 1016.5
20260506042101 10 277 0.0 0.0 0.00 0.00 0.00 83 1016.5
20260506041600 10 314 1.6 3.2 0.00 0.00 0.00 82 1016.4
20260506041101 11 316 1.6 6.4 0.00 0.00 0.00 82 1016.4
20260506040602 11 333 3.2 1.6 0.00 0.00 0.00 80 1016.4
20260506035103 11 307 3.2 1.6 0.00 0.00 0.00 78 1016.2
20260506034105 12 293 0.0 0.0 0.00 0.00 0.00 75 1016.0
20260506032605 12 304 0.0 0.0 0.00 0.00 0.00 72 1015.9
20260506032106 13 304 0.0 0.0 0.00 0.00 0.00 71 1015.8
20260506030610 13 304 1.6 0.0 0.00 0.00 0.00 69 1015.7
20260506025609 14 238 4.8 1.6 0.00 0.00 0.00 68 1015.7
20260506025110 15 293 1.6 3.2 0.00 0.00 0.00 67 1015.7
20260506024611 15 240 1.6 0.0 0.00 0.00 0.00 66 1015.7
20260506024112 15 252 0.0 0.0 0.00 0.00 0.00 65 1015.6
20260506022613 15 294 3.2 1.6 0.00 0.00 0.00 63 1015.4
20260506022114 16 314 0.0 0.0 0.00 0.00 0.00 62 1015.4
20260506021615 16 274 3.2 1.6 0.00 0.00 0.00 60 1015.4
20260506021113 16 290 3.2 4.8 0.00 0.00 0.00 60 1015.4
20260506020614 16 269 1.6 0.0 0.00 0.00 0.00 59 1015.3
20260506020115 16 316 3.2 3.2 0.00 0.00 0.00 58 1015.3
20260506014616 17 263 4.8 6.4 0.00 0.00 0.00 55 1015.3
20260506014117 17 329 4.8 8.0 0.00 0.00 0.00 54 1015.3
20260506013618 17 315 6.4 3.2 0.00 0.00 0.00 53 1015.2
20260506013119 18 301 8.0 3.2 0.00 0.00 0.00 51 1015.2
20260506012620 18 330 6.4 4.8 0.00 0.00 0.00 51 1015.2
20260506011619 18 312 3.2 8.0 0.00 0.00 0.00 50 1015.1
20260506011120 18 302 6.4 9.7 0.00 0.00 0.00 48 1015.1
20260506010621 18 283 6.4 0.0 0.00 0.00 0.00 47 1015.1
20260506010122 18 326 4.8 3.2 0.00 0.00 0.00 48 1015.0
20260506005621 18 304 3.2 6.4 0.00 0.00 0.00 46 1015.0
20260506005122 18 312 6.4 8.0 0.00 0.00 0.00 47 1015.0
20260506004623 18 312 8.0 6.4 0.00 0.00 0.00 46 1014.9
20260506004124 18 295 4.8 6.4 0.00 0.00 0.00 45 1014.9
20260506003625 18 335 8.0 3.2 0.00 0.00 0.00 45 1015.0
20260506002624 18 315 3.2 6.4 0.00 0.00 0.00 45 1014.9
20260506002125 18 290 1.6 4.8 0.00 0.00 0.00 46 1014.9
20260506001128 18 322 6.4 6.4 0.00 0.00 0.00 48 1014.7
20260506000632 18 333 4.8 9.7 0.00 0.00 0.00 48 1014.7
20260506000127 18 294 12.9 6.4 0.00 0.00 0.00 46 1014.9
20260505235628 18 338 9.7 3.2 0.00 0.00 0.00 46 1014.7
20260505235130 19 290 4.8 11.3 0.00 0.00 0.00 45 1014.9
20260505234631 19 307 11.3 6.4 0.00 0.00 0.00 44 1014.7
20260505233630 19 347 9.7 4.8 0.00 0.00 0.00 43 1014.7
20260505233131 19 284 4.8 8.0 0.00 0.00 0.00 46 1014.7
20260505232633 19 321 8.0 8.0 0.00 0.00 0.00 46 1014.7
20260505232134 19 240 6.4 0.0 0.00 0.00 0.00 44 1014.7
20260505231632 20 315 6.4 8.0 0.00 0.00 0.00 45 1014.7
20260505231133 20 295 6.4 4.8 0.00 0.00 0.00 45 1014.6
20260505230634 19 229 8.0 0.0 0.00 0.00 0.00 45 1014.6
20260505230136 19 298 8.0 16.1 0.00 0.00 0.00 47 1014.9
20260505225135 19 332 8.0 4.8 0.00 0.00 0.00 45 1014.7
20260505223638 19 323 4.8 4.8 0.00 0.00 0.00 47 1014.7
20260505223140 18 328 6.4 9.7 0.00 0.00 0.00 50 1014.7
20260505222638 18 291 6.4 3.2 0.00 0.00 0.00 51 1014.6
20260505222139 18 321 0.0 4.8 0.00 0.00 0.00 51 1014.7
20260505221141 19 246 3.2 3.2 0.00 0.00 0.00 50 1014.7
20260505220642 19 257 4.8 4.8 0.00 0.00 0.00 50 1014.7
20260505214644 18 308 6.4 4.8 0.00 0.00 0.00 49 1014.7
20260505213643 18 308 3.2 3.2 0.00 0.00 0.00 50 1014.7
20260505212645 18 316 4.8 3.2 0.00 0.00 0.00 49 1014.9
20260505212146 19 307 3.2 1.6 0.00 0.00 0.00 48 1014.7
20260505205150 18 281 0.0 6.4 0.00 0.00 0.00 49 1014.9
20260505203152 19 314 4.8 6.4 0.00 0.00 0.00 45 1014.7
20260505202653 19 300 6.4 4.8 0.00 0.00 0.00 47 1014.7
20260505202151 19 315 3.2 8.0 0.00 0.00 0.00 46 1014.7
20260505201653 19 309 1.6 1.6 0.00 0.00 0.00 48 1014.7
20260505200655 20 343 6.4 6.4 0.00 0.00 0.00 46 1014.7
20260505200156 20 346 6.4 4.8 0.00 0.00 0.00 48 1014.7
20260505195655 19 35 8.0 6.4 0.00 0.00 0.00 49 1014.7
20260505195156 19 304 1.6 3.2 0.00 0.00 0.00 49 1014.7
20260505194657 19 262 6.4 4.8 0.00 0.00 0.00 50 1014.6
20260505194158 19 335 3.2 6.4 0.00 0.00 0.00 50 1014.6
20260505193659 19 325 4.8 6.4 0.00 0.00 0.00 51 1014.6
20260505193158 19 322 4.8 8.0 0.00 0.00 0.00 50 1014.6
20260505192659 19 295 6.4 1.6 0.00 0.00 0.00 53 1014.5
20260505192200 19 321 6.4 9.7 0.00 0.00 0.00 52 1014.5
20260505191202 19 322 6.4 6.4 0.00 0.00 0.00 52 1014.5
20260505190701 18 304 4.8 4.8 0.00 0.00 0.00 54 1014.5
20260505190202 18 297 6.4 6.4 0.00 0.00 0.00 55 1014.5
20260505185703 18 330 8.0 8.0 0.00 0.00 0.00 54 1014.5
20260505185204 18 335 6.4 4.8 0.00 0.00 0.00 55 1014.4
20260505184203 17 302 4.8 3.2 0.00 0.00 0.00 56 1014.4
20260505183205 17 295 3.2 11.3 0.00 0.00 0.00 57 1014.3
20260505182706 17 10 3.2 1.6 0.00 0.00 0.00 57 1014.3
20260505182207 16 291 4.8 12.9 0.00 0.00 0.00 60 1014.3
20260505181705 16 226 3.2 0.0 0.00 0.00 0.00 61 1014.1
20260505181206 16 336 4.8 1.6 0.00 0.00 0.00 61 1014.1
20260505180707 15 323 11.3 4.8 0.00 0.00 0.00 65 1014.1
20260505180208 15 335 6.4 4.8 0.00 0.00 0.00 64 1014.1
20260505175709 15 352 4.8 1.6 0.00 0.00 0.00 65 1014.0
20260505175207 15 307 1.6 4.8 0.00 0.00 0.00 68 1014.0
20260505174708 15 349 6.4 3.2 0.00 0.00 0.00 68 1013.9
20260505174209 14 280 4.8 8.0 0.00 0.00 0.00 69 1013.9
20260505173710 14 305 3.2 3.2 0.00 0.00 0.00 69 1013.8
20260505173211 14 319 6.4 6.4 0.00 0.00 0.00 70 1013.9
20260505172710 13 278 1.6 3.2 0.00 0.00 0.00 70 1013.8
20260505172211 13 298 1.6 3.2 0.00 0.00 0.00 70 1013.7
20260505171712 13 323 3.2 1.6 0.00 0.00 0.00 70 1013.7
20260505171213 13 309 4.8 0.0 0.00 0.00 0.00 71 1013.7
20260505170714 13 312 3.2 3.2 0.00 0.00 0.00 73 1013.6
20260505170212 12 276 0.0 1.6 0.00 0.00 0.00 74 1013.6
20260505165713 12 342 4.8 4.8 0.00 0.00 0.00 74 1013.4
20260505165214 12 278 4.8 3.2 0.00 0.00 0.00 75 1013.4
20260505164715 12 322 4.8 9.7 0.00 0.00 0.00 75 1013.4
20260505164216 12 312 6.4 4.8 0.00 0.00 0.00 76 1013.4
20260505163714 12 314 4.8 6.4 0.00 0.00 0.00 77 1013.4
20260505163215 12 343 4.8 6.4 0.00 0.00 0.00 75 1013.3
20260505162716 11 328 4.8 0.0 0.00 0.00 0.00 78 1013.3
20260505162217 11 339 1.6 0.0 0.00 0.00 0.00 78 1013.3
20260505161718 11 315 0.0 1.6 0.00 0.00 0.00 80 1013.3
20260505160717 11 308 3.2 3.2 0.00 0.00 0.00 81 1013.3
20260505160218 10 305 1.6 3.2 0.00 0.00 0.00 81 1013.3
20260505152723 9 288 1.6 3.2 0.00 0.00 0.00 86 1013.0
20260505152221 8 269 4.8 4.8 0.00 0.00 0.00 87 1013.0
20260505151722 8 308 1.6 1.6 0.00 0.00 0.00 88 1013.0
20260505150724 8 359 3.2 1.6 0.00 0.00 0.00 88 1013.0
20260505150225 8 278 3.2 1.6 0.00 0.00 0.00 89 1013.0
20260505140229 8 307 0.0 0.0 0.00 0.00 0.00 93 1012.6
20260505130235 7 302 0.0 0.0 0.00 0.00 0.00 91 1012.2
20260505124735 7 276 6.4 0.0 0.00 0.00 0.00 91 1012.1
20260505124236 8 280 0.0 0.0 0.00 0.00 0.00 91 1012.1
20260505123737 8 288 4.8 0.0 0.00 0.00 0.00 91 1012.1
20260505123238 8 339 4.8 3.2 0.00 0.00 0.00 91 1012.1
20260505122736 8 332 0.0 0.0 0.00 0.00 0.00 91 1012.0
20260505121738 8 307 0.0 0.0 0.00 0.00 0.00 91 1012.1
20260505121239 8 298 3.2 0.0 0.00 0.00 0.00 91 1012.1
20260505120740 8 325 6.4 6.4 0.00 0.00 0.00 91 1012.0
20260505120239 8 300 0.0 1.6 0.00 0.00 0.00 90 1012.0
20260505115740 8 300 6.4 1.6 0.00 0.00 0.00 90 1012.0
20260505115241 8 298 3.2 0.0 0.00 0.00 0.00 90 1012.0
20260505114742 8 291 0.0 4.8 0.00 0.00 0.00 90 1012.0
20260505114243 8 291 3.2 0.0 0.00 0.00 0.00 91 1012.0
20260505112743 7 318 1.6 1.6 0.00 0.00 0.00 90 1012.1
20260505112244 7 304 3.2 0.0 0.00 0.00 0.00 91 1012.1
20260505111745 7 290 0.0 0.0 0.00 0.00 0.00 91 1012.1
20260505110744 7 297 4.8 1.6 0.00 0.00 0.00 90 1012.1
20260505110245 7 287 6.4 0.0 0.00 0.00 0.00 90 1012.1
20260505101749 8 269 4.8 3.2 0.00 0.00 0.00 89 1012.1
20260505100252 8 262 8.0 1.6 0.00 0.00 0.00 89 1012.1
20260505095750 8 318 8.0 4.8 0.00 0.00 0.00 89 1012.1
20260505095251 8 284 6.4 0.0 0.00 0.00 0.00 89 1012.1
20260505094253 8 295 3.2 3.2 0.00 0.00 0.00 90 1012.0
20260505093253 8 290 1.6 8.0 0.00 0.00 0.00 90 1012.1
20260505092754 8 301 0.0 8.0 0.00 0.00 0.00 91 1012.1
20260505092255 8 301 1.6 3.2 0.00 0.00 0.00 90 1012.1
20260505091756 8 321 3.2 3.2 0.00 0.00 0.00 90 1012.1
20260505090256 8 312 3.2 1.6 0.00 0.00 0.00 90 1012.1
20260505085757 8 297 0.0 6.4 0.00 0.00 0.00 90 1012.1
20260505085258 8 307 3.2 0.0 0.00 0.00 0.00 89 1012.2
20260505084257 8 300 0.0 0.0 0.00 0.00 0.00 89 1012.4
20260505083300 8 271 1.6 1.6 0.00 0.00 0.00 90 1012.4
20260505082801 8 350 3.2 8.0 0.00 0.00 0.00 90 1012.4
20260505082304 8 319 1.6 4.8 0.00 0.00 0.00 90 1012.4
20260505081301 8 347 0.0 6.4 0.00 0.00 0.00 90 1012.4
20260505080802 8 184 4.8 0.0 0.00 0.00 0.00 91 1012.4
20260505080303 8 252 0.0 0.0 0.00 0.00 0.00 90 1012.4
20260505075804 8 264 3.2 0.0 0.00 0.00 0.00 91 1012.4
20260505075304 8 298 3.2 0.0 0.00 0.00 0.00 91 1012.4
20260505074804 8 263 3.2 1.6 0.00 0.00 0.00 91 1012.4
20260505074305 8 284 3.2 0.0 0.00 0.00 0.00 91 1012.4
20260505073806 8 294 9.7 8.0 0.00 0.00 0.00 92 1012.4
20260505072805 8 302 4.8 0.0 0.00 0.00 0.00 92 1012.4
20260505072306 8 266 4.8 8.0 0.00 0.00 0.00 92 1012.4
20260505071807 8 248 1.6 3.2 0.00 0.00 0.00 91 1012.4
20260505070809 8 315 3.2 9.7 0.00 0.00 0.00 91 1012.4